This is the latest recevied weather packets stored in our database for station/object IU0SZS-10. If no packets are shown the sender has not sent any weather packets the latest 10 day(s).
| Time | Temp. | Humidity | Pressure | Rain* | Wind** | Luminosity | Snow |
|---|---|---|---|---|---|---|---|
| 1777188467 | 11.67° C | 34% | 918.7 hPa | - | - | - | - |
| 1777187567 | 11.11° C | 34% | 918.5 hPa | - | - | - | - |
| 1777186667 | 11.11° C | 35% | 918.4 hPa | - | - | - | - |
| 1777185767 | 11.11° C | 33% | 918.4 hPa | - | - | - | - |
| 1777184900 | 10.56° C | 32% | 918.2 hPa | - | - | - | - |
| 1777184867 | 10.56° C | 32% | 918.2 hPa | - | - | - | - |
| 1777183966 | 10.56° C | 37% | 918.2 hPa | - | - | - | - |
| 1777183066 | 10° C | 39% | 918.1 hPa | - | - | - | - |
| 1777182166 | 10° C | 39% | 918 hPa | - | - | - | - |
| 1777181266 | 9.44° C | 40% | 917.9 hPa | - | - | - | - |
| 1777180397 | 8.89° C | 43% | 917.7 hPa | - | - | - | - |
| 1777180365 | 8.89° C | 43% | 917.7 hPa | - | - | - | - |
| 1777179515 | 8.89° C | 44% | 917.5 hPa | - | - | - | - |
| 1777179465 | 8.89° C | 44% | 917.5 hPa | - | - | - | - |
| 1777178565 | 8.89° C | 43% | 917.4 hPa | - | - | - | - |
| 1777177665 | 8.89° C | 41% | 917.3 hPa | - | - | - | - |
| 1777176765 | 8.89° C | 41% | 917.2 hPa | - | - | - | - |
| 1777175864 | 8.89° C | 42% | 917.2 hPa | - | - | - | - |
| 1777174964 | 9.44° C | 41% | 917.1 hPa | - | - | - | - |
| 1777174064 | 9.44° C | 38% | 917.2 hPa | - | - | - | - |
| 1777173164 | 9.44° C | 40% | 917.2 hPa | - | - | - | - |
| 1777172264 | 9.44° C | 38% | 917.2 hPa | - | - | - | - |
| 1777171364 | 9.44° C | 38% | 917.3 hPa | - | - | - | - |
| 1777170463 | 10° C | 38% | 917.2 hPa | - | - | - | - |
| 1777169563 | 10° C | 38% | 917.2 hPa | - | - | - | - |
* Rain since midnight (hover to see other rain measurements)
** Current wind speed in m/s (hover to see current wind gust speed)